CAPE
0 0 0 0 0 0 0 0 1 0 0 2 2 1 1 1 2 12 30 24 17 11 0 3 0 0 0 0 0 0 0 0 0 4 3 1 1 0 0 0 0 0 0
0 0 0 0 0 0 0 0 0 1 1 2 1 1 1 2 15 27 26 18 10 0 0 0 0 0 0 0 0 0 0 0 0 0 7 4 1 0 0 0 0 0 0
0 0 0 0 1 0 1 2 1 1 2 1 0 1 23 21 14 6 3 4 5 1 0 0 0 0 0 0 0 0 0 0 0 0 1 2 0 0 0 0 0 0 0
0 0 0 1 0 1 1 1 1 2 1 1 0 0 2 0 0 0 0 0 0 0 0 0 0 0 0 0 0 0 0 0 0 0 0 2 2 1 0 1 0 0 0
0 0 0 0 0 1 1 1 1 2 2 2 0 0 0 0 0 0 0 0 0 0 0 0 0 0 0 0 0 0 0 0 0 0 0 1 0 1 0 0 1 0 0
0 0 0 0 1 1 1 1 1 3 3 2 4 2 2 3 2 1 0 0 0 0 0 1 0 0 0 0 0 0 0 0 0 0 0 0 0 0 0 0 2 2 0
0 0 0 0 1 1 0 1 1 2 2 2 2 1 1 2 1 0 0 0 0 2 2 2 1 2 0 0 0 0 0 0 0 0 0 0 0 0 0 0 0 0 0
0 0 0 1 1 1 0 0 0 0 0 1 0 0 0 0 0 0 0 0 0 0 0 0 0 0 0 0 0 0 0 0 0 0 0 0 0 0 0 0 0 0 0
0 0 0 0 0 1 0 0 0 0 0 0 0 0 0 0 0 0 0 0 0 0 0 0 0 0 0 0 0 0 0 0 0 0 0 0 0 0 0 0 0 0 0
0 0 0 0 0 0 0 0 0 0 0 0 0 0 0 0 0 0 0 0 0 0 0 0 0 0 0 0 0 0 0 0 0 0 0 0 0 0 0 0 0 0 0
0 0 0 0 0 0 0 0 0 0 0 0 0 0 0 0 0 0 0 0 0 0 0 0 0 0 0 0 0 0 0 0 0 0 0 0 0 0 0 0 0 1 0
0 0 0 0 0 0 0 0 0 0 0 0 0 0 0 0 0 0 0 0 0 0 0 0 0 0 0 0 0 0 0 0 0 0 0 0 0 0 0 0 0 0 0
0 0 0 0 0 0 0 0 0 0 0 0 0 0 0 0 0 0 0 0 0 0 0 0 0 0 0 0 0 0 0 0 0 0 0 0 0 0 0 0 0 0 0
0 0 0 0 0 0 0 0 0 0 0 0 0 0 0 0 0 0 0 0 0 0 0 0 0 0 0 0 0 0 0 0 0 0 0 0 0 0 0 0 0 0 0
0 0 0 0 0 0 0 0 0 0 0 0 0 0 0 0 0 0 0 0 0 0 0 0 0 0 0 0 0 0 0 0 0 0 0 0 0 0 0 0 0 0 0
0 0 0 0 0 0 0 0 0 0 0 0 0 0 0 0 0 0 0 0 0 0 0 0 0 0 0 0 0 0 0 0 0 0 0 0 1 0 0 0 0 0 0
0 0 0 0 0 0 0 0 0 0 0 0 0 0 0 0 0 0 0 0 0 0 0 0 0 1 2 1 1 1 1 1 0 0 0 0 0 0 0 0 0 0 0
0 0 0 0 0 0 0 0 0 0 0 0 0 0 0 0 0 0 0 0 0 0 0 1 2 2 2 1 1 0 0 0 0 0 0 0 0 0 0 1 1 1 0
0 0 0 0 0 0 0 0 0 0 0 0 0 0 0 0 0 0 0 1 2 3 2 1 1 0 0 1 0 0 0 0 0 0 0 0 0 0 0 0 0 0 0
0 0 0 0 0 0 0 0 0 0 0 0 0 0 1 1 1 0 0 1 0 0 0 0 0 0 0 0 0 0 0 0 0 0 0 0 0 0 0 0 0 0 0
0 0 0 0 0 0 0 0 0 0 0 0 0 1 0 0 1 1 2 1 1 1 1 0 0 0 0 0 0 0 0 0 0 0 0 0 0 0 0 0 0 0 0
0 0 0 0 0 0 0 0 0 0 0 0 1 4 1 1 1 1 1 1 2 2 2 0 0 0 0 0 0 0 0 0 0 0 0 0 0 0 0 0 0 0 0
0 0 0 0 0 0 0 0 0 0 0 1 1 1 1 1 0 0 0 0 0 0 0 0 0 0 0 0 0 0 0 0 0 0 0 0 0 0 0 0 0 0 0
0 0 0 0 0 0 0 0 0 0 1 2 1 2 1 1 0 0 1 0 0 0 0 0 0 0 0 0 0 0 0 0 0 0 0 0 0 0 0 0 0 0 0
0 0 0 0 0 0 0 0 1 2 2 0 1 1 1 1 1 1 0 0 0 0 0 0 0 0 0 0 0 0 0 0 0 0 0 0 0 0 0 0 0 0 0
0 0 0 0 0 0 1 1 2 2 2 0 0 0 0 0 0 0 0 0 0 0 0 0 0 0 0 0 0 0 0 0 0 0 0 0 0 0 0 0 0 0 0
CIN
-0 -0 -0 -0 -0 -0 -0 -0 -0 -0 -0 -0 -0 -0 -0 -0 -0 -15 -0 -0 -3 -4 -0 -22 -0 -0 -0 -0 -0 -0 -0 -0 -0 -0 -0 -0 -0 -0 -0 -0 -0 -0 -1
-0 -0 -0 -0 -0 -0 -0 -0 -0 -0 -0 -0 -0 -0 -0 -2 -20 -6 -6 -3 -11 -11 -1 -0 -0 -0 -0 -0 -0 -0 -0 -0 -0 -0 -0 -0 -0 -0 -0 -0 -0 -0 -0
-0 -0 -0 -0 -0 -0 -0 -0 -0 -0 -0 -0 -0 -11 -24 -11 -7 -11 -6 -7 -23 -21 -0 -0 -11 -6 -0 -0 -0 -0 -0 -0 -0 -0 -0 -0 -0 -0 -0 -0 -0 -0 -0
-0 -0 -0 -0 -0 -0 -0 -0 -0 -0 -0 -0 -0 -0 -14 -0 -0 -0 -0 -0 -0 -0 -0 -0 -8 -0 -0 -0 -0 -0 -0 -0 -0 -0 -0 -0 -0 -0 -0 -0 -0 -0 -0
-0 -0 -0 -0 -0 -0 -0 -0 -0 -0 -0 -0 -0 -0 -0 -0 -0 -0 -0 -0 -0 -0 -0 -0 -0 -0 -0 -0 -0 -0 -0 -0 -0 -0 -0 -0 -0 -0 -0 -0 -0 -0 -0
-0 -0 -0 -0 -0 -0 -0 -0 -0 -0 -0 -0 -0 -0 -0 -0 -0 -0 -0 -0 -0 -0 -0 -0 -0 -0 -0 -0 -0 -0 -0 -0 -0 -0 -0 -0 -0 -0 -0 -0 -0 -0 -0
-0 -0 -0 -0 -0 -0 -0 -0 -0 -0 -0 -0 -0 -0 -0 -0 -0 -0 -0 -0 -0 -0 -0 -0 -0 -0 -0 -0 -0 -0 -0 -0 -0 -0 -0 -0 -0 -0 -0 -0 -0 -0 -0
-0 -0 -0 -0 -0 -0 -0 -0 -0 -0 -0 -0 -0 -0 -0 -0 -0 -0 -0 -0 -0 -0 -0 -0 -0 -0 -0 -0 -0 -0 -0 -0 -0 -0 -0 -0 -0 -0 -0 -0 -0 -0 -0
-0 -0 -0 -0 -0 -0 -0 -0 -0 -0 -0 -0 -0 -0 -0 -0 -0 -0 -0 -0 -0 -0 -0 -0 -0 -0 -0 -0 -0 -0 -0 -0 -0 -0 -0 -0 -0 -0 -0 -0 -0 -0 -0
-0 -0 -0 -0 -0 -0 -0 -0 -0 -0 -0 -0 -0 -0 -0 -0 -0 -0 -0 -0 -0 -0 -0 -0 -0 -0 -0 -0 -0 -0 -0 -0 -0 -0 -0 -0 -0 -0 -0 -0 -0 -0 -0
-0 -0 -0 -0 -0 -0 -0 -0 -0 -0 -0 -0 -0 -0 -0 -0 -0 -0 -0 -0 -0 -0 -0 -0 -0 -0 -0 -0 -0 -0 -0 -0 -0 -0 -0 -0 -0 -0 -0 -0 -0 -0 -0
-0 -0 -0 -0 -0 -0 -0 -0 -0 -0 -0 -0 -0 -0 -0 -0 -0 -0 -0 -0 -0 -0 -0 -0 -0 -0 -0 -0 -0 -0 -0 -0 -0 -0 -0 -0 -0 -0 -0 -0 -0 -0 -0
-0 -0 -0 -0 -0 -0 -0 -0 -0 -0 -0 -0 -0 -0 -0 -0 -0 -0 -0 -0 -0 -0 -0 -0 -0 -0 -0 -0 -0 -0 -0 -0 -0 -0 -0 -0 -0 -0 -0 -0 -0 -0 -0
-0 -0 -0 -0 -0 -0 -0 -0 -0 -0 -0 -0 -0 -0 -0 -0 -0 -0 -0 -0 -0 -0 -0 -0 -0 -0 -0 -0 -0 -0 -0 -0 -0 -0 -0 -0 -0 -0 -0 -0 -0 -0 -0
-0 -0 -0 -0 -0 -0 -0 -0 -0 -0 -0 -0 -0 -0 -0 -0 -0 -0 -0 -0 -0 -0 -0 -0 -0 -0 -0 -0 -0 -0 -0 -0 -0 -0 -0 -0 -0 -0 -0 -0 -0 -0 -0
-0 -0 -0 -0 -0 -0 -0 -0 -0 -0 -0 -0 -0 -0 -0 -0 -0 -0 -0 -0 -0 -0 -0 -0 -0 -0 -0 -0 -0 -0 -0 -0 -0 -0 -0 -0 -0 -0 -0 -0 -0 -0 -0
-0 -0 -0 -0 -0 -0 -0 -0 -0 -0 -0 -0 -0 -0 -0 -0 -0 -0 -0 -0 -0 -0 -0 -0 -0 -0 -0 -0 -0 -0 -0 -0 -0 -0 -0 -0 -0 -0 -0 -0 -0 -0 -0
-0 -0 -0 -0 -0 -0 -0 -0 -0 -0 -0 -0 -0 -0 -0 -0 -0 -0 -0 -0 -0 -0 -0 -0 -0 -0 -0 -0 -0 -0 -0 -0 -0 -0 -0 -0 -0 -0 -0 -0 -0 -0 -0
-0 -0 -0 -0 -0 -0 -0 -0 -0 -0 -0 -0 -0 -0 -0 -0 -0 -0 -0 -0 -0 -0 -0 -0 -0 -0 -0 -0 -0 -0 -0 -0 -0 -0 -0 -0 -0 -0 -0 -0 -0 -0 -0
-0 -0 -0 -0 -0 -0 -0 -0 -0 -0 -0 -0 -0 -0 -0 -0 -0 -0 -0 -0 -0 -0 -0 -0 -0 -0 -0 -0 -0 -0 -0 -0 -0 -0 -0 -0 -0 -0 -0 -0 -0 -0 -0
-0 -0 -0 -0 -0 -0 -0 -0 -0 -0 -0 -0 -0 -0 -0 -0 -0 -0 -0 -0 -0 -0 -0 -0 -0 -0 -0 -0 -0 -0 -0 -0 -0 -0 -0 -0 -0 -0 -0 -0 -0 -0 -0
-0 -0 -0 -0 -0 -0 -0 -0 -0 -0 -0 -0 -0 -0 -0 -0 -0 -0 -0 -0 -0 -0 -0 -0 -0 -0 -0 -0 -0 -0 -0 -0 -0 -0 -0 -0 -0 -0 -0 -0 -0 -0 -0
-0 -0 -0 -0 -0 -0 -0 -0 -0 -0 -0 -0 -0 -0 -0 -0 -0 -0 -0 -0 -0 -0 -0 -0 -0 -0 -0 -0 -0 -0 -0 -0 -0 -0 -0 -0 -0 -0 -0 -0 -0 -0 -0
-0 -0 -0 -0 -0 -0 -0 -0 -0 -0 -0 -0 -0 -0 -0 -0 -0 -0 -0 -0 -0 -0 -0 -0 -0 -0 -0 -0 -0 -0 -0 -0 -0 -0 -0 -0 -0 -0 -0 -0 -0 -0 -0
-0 -0 -0 -0 -0 -0 -0 -0 -0 -0 -0 -0 -0 -0 -0 -0 -0 -0 -0 -0 -0 -0 -0 -0 -0 -0 -0 -0 -0 -0 -0 -0 -0 -0 -0 -0 -0 -0 -0 -0 -0 -0 -0
-0 -0 -0 -0 -0 -0 -0 -0 -0 -0 -0 -0 -0 -0 -0 -0 -0 -0 -0 -0 -0 -0 -0 -0 -0 -0 -0 -0 -0 -0 -0 -0 -0 -0 -0 -0 -0 -0 -0 -0 -0 -0 -0
Wind_Speed
19 20 20 19 18 14 14 13 12 12 14 16 19 21 26 30 29 28 22 21 25 30 25 31 22 6 11 12 11 14 12 14 13 14 13 12 11 13 12 12 14 14 14
19 21 21 20 19 17 15 12 11 10 13 17 18 24 30 30 29 22 20 19 18 13 14 15 14 14 13 10 12 13 11 13 14 12 14 14 19 11 11 12 13 14 14
20 21 21 22 20 17 13 10 11 16 18 21 24 30 26 26 28 22 20 19 17 16 17 16 15 15 9 11 12 8 10 12 13 14 14 17 17 10 10 10 11 10 10
20 22 23 22 18 17 12 8 11 18 24 27 28 30 30 29 27 26 25 20 13 13 15 16 13 10 5 7 8 8 8 11 13 12 16 13 14 10 8 8 8 7 6
21 23 24 23 19 18 10 8 6 5 5 29 27 25 24 18 19 24 5 4 5 5 6 7 9 7 6 8 7 7 9 13 12 12 15 16 12 11 6 7 5 5 4
21 23 24 24 19 4 3 2 2 10 8 9 10 9 10 4 2 3 7 6 5 6 6 4 5 7 7 8 10 10 12 12 13 16 17 17 14 12 9 7 8 8 9
20 22 24 25 26 27 17 15 12 14 17 19 18 15 13 10 13 11 10 5 4 8 8 6 7 8 9 9 10 11 13 15 16 17 17 17 18 12 10 9 7 9 13
18 21 23 23 24 27 28 29 21 16 18 18 17 17 16 14 14 13 11 11 9 10 9 8 10 10 11 11 11 12 15 16 18 19 18 18 18 15 12 13 12 14 18
16 18 20 21 20 19 20 23 27 28 24 21 21 20 21 19 16 11 10 11 11 11 12 12 11 12 13 13 13 14 16 18 19 20 20 20 20 16 14 14 17 18 20
14 16 16 18 19 17 16 17 17 18 21 21 19 19 20 21 20 21 19 14 13 12 12 12 13 14 15 15 15 16 17 19 21 20 21 21 21 19 16 18 19 21 23
12 13 13 14 16 16 14 13 14 15 15 14 14 14 14 15 15 15 16 14 14 13 13 14 15 15 16 17 17 18 19 19 20 21 21 22 22 22 21 21 22 22 23
11 11 11 10 10 11 11 10 9 10 11 12 13 12 12 12 13 13 14 14 14 14 14 15 15 17 18 18 19 20 21 21 22 22 23 24 24 25 25 25 25 24 24
10 10 10 8 8 8 8 8 9 10 11 11 12 12 12 13 14 14 14 14 14 14 14 15 17 18 18 19 21 22 22 23 23 24 26 26 26 26 27 27 27 26 27
11 9 8 8 8 8 7 7 7 8 9 10 10 11 11 12 13 14 14 15 15 16 17 17 18 19 20 21 22 23 24 24 25 25 26 26 27 28 29 29 30 31 30
9 7 5 4 6 7 7 6 6 8 8 9 10 10 11 12 13 13 14 15 15 15 16 17 19 20 22 23 24 25 25 26 27 27 28 29 29 29 30 29 30 31 33
7 5 1 2 2 3 4 6 9 9 10 10 10 11 12 12 13 14 15 14 14 15 16 18 20 22 23 25 26 26 27 28 28 29 29 29 30 31 31 31 31 33 35
7 6 6 4 2 2 3 2 4 8 9 10 10 11 12 12 14 14 14 15 15 15 18 21 22 23 24 25 26 26 27 28 27 28 28 29 29 29 30 31 32 33 35
6 5 4 4 6 3 2 2 3 4 5 9 12 11 12 12 13 13 13 14 16 19 20 21 22 22 23 24 24 25 26 28 28 29 30 30 31 31 33 34 35 36 37
7 6 5 3 2 1 1 1 2 4 6 8 10 13 12 12 13 14 14 15 16 18 20 21 22 22 22 23 24 25 26 27 29 30 31 31 32 32 34 35 35 36 37
8 7 6 6 4 3 3 2 3 4 5 8 10 10 11 12 14 15 16 16 17 19 20 20 21 22 23 24 24 25 26 28 29 30 32 33 34 34 35 36 37 38 39
9 8 6 6 6 5 3 2 3 4 6 9 9 10 10 11 12 14 16 17 18 18 19 19 20 22 23 24 25 26 27 28 30 31 32 34 34 35 35 35 36 37 38
10 9 8 6 5 4 4 3 3 5 6 7 8 9 10 12 12 13 14 15 16 17 18 19 20 21 23 24 25 26 27 29 31 31 32 33 33 34 35 36 37 38 38
11 10 9 8 6 5 4 3 2 3 4 4 6 8 9 10 11 12 13 14 15 16 17 18 19 22 23 24 25 26 27 28 29 30 31 32 33 34 35 36 37 38 39
9 9 8 6 5 5 4 3 2 2 3 5 6 7 7 8 9 10 12 13 14 16 17 18 19 21 23 24 25 26 26 27 28 29 30 31 32 33 34 35 36 37 38
8 7 7 7 5 4 3 3 2 2 3 3 4 5 7 8 9 10 11 12 13 15 16 18 19 21 22 23 24 25 26 27 28 28 29 30 31 33 33 34 36 36 38
8 7 7 6 4 4 3 3 2 1 2 3 3 4 5 6 7 8 10 11 12 14 16 17 19 20 21 22 23 24 25 27 28 28 29 30 31 32 33 34 35 36 37
Wind_Direction
61 60 68 84 106 143 150 158 173 207 228 182 189 200 195 186 191 197 214 214 208 197 215 210 225 251 255 269 287 277 310 334 3 1 351 342 23 112 106 83 120 107 98
70 70 81 97 127 135 141 152 175 207 202 171 170 176 169 176 180 200 209 220 228 241 240 235 235 246 254 295 286 287 333 345 6 33 333 330 264 100 103 98 109 107 110
77 79 93 105 129 143 156 176 171 144 148 139 149 145 171 177 170 195 204 220 233 240 242 236 236 248 271 290 297 338 347 1 357 340 336 289 302 90 76 77 99 105 79
83 88 101 114 136 148 164 193 170 139 120 115 124 128 138 148 161 161 154 196 240 238 227 229 243 262 286 316 317 352 26 3 346 356 317 330 324 3 40 90 104 94 88
88 94 103 119 142 144 179 183 187 359 26 94 90 92 149 178 187 115 244 23 258 259 255 261 268 292 322 317 4 14 1 333 344 339 322 320 11 17 91 63 96 85 89
88 94 102 116 140 291 245 280 356 29 30 40 42 36 38 9 299 339 36 31 38 47 41 351 334 346 344 335 350 351 335 336 327 306 315 329 349 2 25 39 19 10 2
86 90 90 104 109 108 50 35 33 39 44 50 48 46 41 29 42 46 45 38 16 25 20 5 337 336 351 358 1 353 336 322 312 314 329 334 334 1 5 358 357 349 340
84 89 88 82 85 97 90 87 60 45 47 47 43 40 39 31 41 46 45 42 30 23 17 8 15 4 6 14 357 334 321 320 319 319 329 336 338 347 351 341 339 334 326
87 92 87 79 73 71 69 74 87 86 65 54 53 51 53 45 37 31 33 34 32 28 22 15 13 9 352 349 345 330 320 320 321 326 331 333 334 343 344 340 332 328 325
95 96 86 81 80 73 66 63 59 56 64 61 49 44 47 53 51 60 59 49 40 31 17 6 5 1 352 344 342 336 333 329 329 335 337 338 338 338 338 332 329 323 321
95 96 92 82 80 76 66 57 57 54 47 34 30 19 25 26 23 35 43 41 45 35 20 9 0 355 351 346 343 340 338 339 336 336 337 338 337 337 335 332 330 325 321
102 98 95 86 74 71 65 48 31 26 27 25 27 21 6 2 6 14 17 22 20 21 13 5 2 359 355 352 348 346 343 341 340 339 338 336 335 334 333 331 328 324 323
108 102 94 82 71 72 69 55 45 39 40 37 35 29 18 11 10 9 10 12 12 12 5 1 355 351 350 349 347 346 345 343 341 338 336 335 334 333 332 330 329 328 325
118 110 98 91 82 71 54 37 36 33 31 27 27 26 20 10 5 4 10 11 10 6 1 357 356 355 353 351 347 345 344 342 340 338 336 335 334 332 330 329 327 326 325
120 112 101 86 87 74 52 28 10 349 10 17 9 11 15 11 359 2 2 359 2 6 6 1 357 354 350 348 347 348 348 346 342 340 338 336 335 334 332 333 331 329 324
139 133 105 314 13 32 21 15 337 338 346 359 3 11 3 12 0 0 3 9 9 8 4 1 356 352 348 346 345 344 344 342 341 341 339 338 337 335 333 333 332 330 326
164 156 139 124 344 29 0 11 7 344 357 7 8 7 5 4 3 6 10 11 11 12 3 355 352 351 350 350 350 351 351 352 353 352 351 349 348 347 344 342 341 337 333
197 198 202 149 131 110 74 29 41 43 23 358 356 355 353 355 359 4 9 6 2 0 357 355 355 356 356 358 358 358 358 357 356 355 354 354 352 350 346 344 341 338 336
204 215 226 217 175 148 98 11 13 3 356 359 357 352 357 3 5 0 357 355 357 357 357 358 358 358 360 2 2 1 2 0 358 356 355 354 353 352 348 347 345 342 340
223 210 216 247 258 262 281 302 326 338 344 341 341 345 351 352 349 350 353 355 356 356 358 359 360 1 3 3 2 2 2 1 359 359 357 354 352 351 348 346 344 342 340
221 226 221 234 251 262 268 284 319 331 332 333 337 344 351 352 353 352 351 351 354 357 0 3 5 5 4 6 6 6 5 4 2 0 358 355 354 353 355 354 353 351 348
227 230 232 234 235 249 264 282 307 319 330 342 351 355 359 353 353 355 356 359 1 6 8 12 13 12 11 10 8 7 6 1 2 3 3 4 4 3 2 1 359 357 356
237 238 244 247 251 251 265 278 308 337 350 359 359 351 351 358 2 5 7 7 12 15 18 19 18 16 14 13 13 13 12 9 11 12 11 11 9 8 7 7 6 5 3
235 234 237 243 247 257 261 278 312 334 336 337 346 357 9 14 17 16 16 20 23 23 25 24 24 22 19 19 19 20 20 19 18 18 17 15 14 12 11 11 10 10 9
238 237 236 237 238 241 245 270 299 320 337 0 23 29 26 27 25 25 28 28 31 33 32 29 27 26 25 25 24 23 23 22 21 20 20 18 16 15 15 15 14 14 13
243 242 245 248 243 235 235 248 279 327 14 20 20 22 24 27 33 36 41 42 40 37 35 32 31 29 27 26 25 26 24 22 22 21 19 19 18 17 17 17 15 16 16